FW6463 Weather Reports


time (UTC)temp
C
wind
direction
speed
KPH
gust
KPH
rain 1hr
cm
rain 24hr
cm
rain mn
cm
humidity
%
barometer
mb
20260509093021 9 0.0 0.0 0.00 0.00 0.00 94 1013.7
20260509092026 9 0.0 0.0 0.00 0.00 0.00 95 1013.7
20260509091032 9 0.0 0.0 0.00 0.00 0.00 94 1013.5
20260509090019 9 0.0 0.0 0.00 0.00 0.00 94 1013.7
20260509085022 9 0.0 0.0 0.00 0.00 0.00 92 1013.7
20260509084027 9 0.0 0.0 0.00 0.00 0.00 92 1013.7
20260509083032 9 300 0.0 1.6 0.00 0.00 0.00 93 1013.7
20260509082018 9 152 1.6 3.2 0.00 0.00 0.00 92 1013.7
20260509081023 9 158 0.0 3.2 0.00 0.00 0.00 91 1013.7
20260509080028 9 0.0 0.0 0.00 0.00 0.00 92 1013.7
20260509075027 9 165 1.6 3.2 0.00 0.00 0.00 93 1013.8
20260509074021 9 0.0 0.0 0.00 0.00 0.00 93 1013.9
20260509073024 9 0.0 0.0 0.00 0.00 0.00 92 1013.9
20260509072024 9 177 1.6 3.2 0.00 0.00 0.00 91 1014.0
20260509071016 8 210 1.6 3.2 0.00 0.00 0.00 93 1014.2
20260509070022 8 0.0 0.0 0.00 0.00 0.00 95 1014.2
20260509065039 8 158 0.0 3.2 0.00 0.00 0.00 95 1014.2
20260509064018 8 248 0.0 1.6 0.00 0.00 0.00 94 1014.3
20260509063016 9 180 0.0 3.2 0.00 0.00 0.00 94 1014.4
20260509062017 9 0.0 0.0 0.00 0.00 0.00 92 1014.5
20260509061026 10 293 0.0 3.2 0.00 0.00 0.00 93 1014.7
20260509060031 10 0.0 0.0 0.00 0.00 0.00 92 1014.4
20260509055018 10 0.0 0.0 0.00 0.00 0.00 92 1014.4
20260509054022 10 180 1.6 3.2 0.00 0.00 0.00 92 1014.4
20260509053028 10 270 0.0 1.6 0.00 0.00 0.00 91 1014.4
20260509052032 10 0.0 0.0 0.00 0.00 0.00 90 1014.4
20260509051039 10 173 0.0 1.6 0.00 0.00 0.00 92 1014.6
20260509050025 10 0.0 0.0 0.00 0.00 0.00 90 1014.7
20260509045048 10 0.0 0.0 0.00 0.00 0.00 90 1014.7
20260509044033 10 0.0 0.0 0.00 0.00 0.00 91 1014.8
20260509043020 10 0.0 0.0 0.00 0.00 0.00 91 1014.9
20260509042025 10 0.0 0.0 0.00 0.00 0.00 90 1014.9
20260509041030 10 0.0 0.0 0.00 0.00 0.00 89 1014.9
20260509040015 10 113 0.0 3.2 0.00 0.00 0.00 89 1014.9
20260509035101 10 0.0 0.0 0.00 0.00 0.00 88 1014.9
20260509034024 11 0.0 3.2 0.00 0.00 0.00 87 1014.9
20260509033030 11 315 0.0 3.2 0.00 0.00 0.00 85 1014.9
20260509032016 11 0.0 0.0 0.00 0.00 0.00 84 1015.3
20260509031021 11 158 1.6 4.8 0.00 0.00 0.00 83 1015.3
20260509030025 11 0.0 0.0 0.00 0.00 0.00 83 1015.4
20260509025030 11 0.0 0.0 0.00 0.00 0.00 83 1015.3
20260509024038 11 0.0 0.0 0.00 0.00 0.00 82 1015.2
20260509023021 11 343 1.6 1.6 0.00 0.00 0.00 82 1015.3
20260509022046 11 0.0 0.0 0.00 0.00 0.00 80 1015.4
20260509021031 11 158 0.0 3.2 0.00 0.00 0.00 79 1015.2
20260509020017 12 189 1.6 3.2 0.00 0.00 0.00 81 1014.9
20260509015044 11 179 3.2 4.8 0.00 0.00 0.00 82 1014.8
20260509014027 12 34 1.6 3.2 0.00 0.00 0.00 80 1014.7
20260509013032 12 171 1.6 4.8 0.00 0.00 0.00 80 1014.7
20260509012019 12 0.0 0.0 0.00 0.00 0.00 79 1014.7
20260509011023 12 184 3.2 3.2 0.00 0.00 0.00 79 1014.7
20260509010048 12 179 3.2 4.8 0.00 0.00 0.00 77 1014.9
20260509005015 12 169 3.2 3.2 0.00 0.00 0.00 75 1015.0
20260509004020 13 180 1.6 3.2 0.00 0.00 0.00 75 1015.0
20260509003044 13 0.0 0.0 0.00 0.00 0.00 71 1014.9
20260509002030 13 0.0 0.0 0.00 0.00 0.00 68 1014.7
20260509001016 14 180 0.0 3.2 0.00 0.00 0.00 66 1014.7
20260509000020 15 305 1.6 3.2 0.00 0.00 0.00 61 1014.7
20260508235025 16 243 3.2 4.8 0.00 0.00 0.00 60 1014.7
20260508234024 16 291 4.8 8.0 0.00 0.00 0.00 59 1014.6
20260508233017 17 292 4.8 6.4 0.00 0.00 0.00 58 1014.4
20260508232022 17 300 4.8 9.7 0.00 0.00 0.00 56 1014.2
20260508231021 16 270 4.8 9.7 0.00 0.00 0.00 58 1014.4
20260508230019 16 274 6.4 9.7 0.00 0.00 0.00 56 1014.7
20260508225018 16 264 12.9 22.5 0.00 0.00 0.00 56 1014.7
20260508224058 16 266 8.0 14.5 0.00 0.00 0.00 56 1014.7
20260508223035 16 260 9.7 14.5 0.00 0.00 0.00 56 1014.6
20260508222032 17 269 12.9 20.9 0.00 0.00 0.00 55 1014.5
20260508221020 17 259 16.1 24.1 0.00 0.00 0.00 54 1014.4
20260508220044 17 271 8.0 12.9 0.00 0.00 0.00 54 1014.4
20260508215029 17 269 6.4 11.3 0.00 0.00 0.00 53 1014.3
20260508214033 17 273 6.4 11.3 0.00 0.00 0.00 54 1014.3
20260508213021 17 272 4.8 9.7 0.00 0.00 0.00 54 1014.4
20260508212025 17 249 8.0 12.9 0.00 0.00 0.00 53 1014.4
20260508211029 17 256 8.0 12.9 0.00 0.00 0.00 52 1014.4
20260508210016 17 291 6.4 9.7 0.00 0.00 0.00 52 1014.2
20260508205020 17 246 6.4 9.7 0.00 0.00 0.00 51 1014.3
20260508204025 17 253 6.4 12.9 0.00 0.00 0.00 51 1014.4
20260508203030 17 268 8.0 12.9 0.00 0.00 0.00 49 1014.4
20260508202017 17 251 11.3 16.1 0.00 0.00 0.00 50 1014.4
20260508201022 17 220 9.7 19.3 0.00 0.00 0.00 50 1014.5
20260508200026 17 259 11.3 17.7 0.00 0.00 0.00 48 1014.4
20260508195031 17 253 9.7 19.3 0.00 0.00 0.00 48 1014.3
20260508194018 17 257 8.0 11.3 0.00 0.00 0.00 48 1014.3
20260508193023 17 256 14.5 25.7 0.00 0.00 0.00 48 1014.6
20260508192027 -17 270 9.7 9.7 0.00 0.00 0.00 1014.4
20260508191032 18 256 11.3 14.5 0.00 0.00 0.00 49 1014.6
20260508190019 19 246 11.3 17.7 0.00 0.00 0.00 45 1014.6
20260508185024 19 255 8.0 14.5 0.00 0.00 0.00 46 1014.7
20260508184028 20 250 14.5 27.4 0.00 0.00 0.00 45 1014.9
20260508183033 20 262 11.3 16.1 0.00 0.00 0.00 47 1015.1
20260508182019 19 255 9.7 16.1 0.00 0.00 0.00 50 1015.3
20260508181024 20 275 16.1 20.9 0.00 0.00 0.00 47 1015.3
20260508180030 20 263 16.1 24.1 0.00 0.00 0.00 50 1015.6
20260508175016 20 240 12.9 20.9 0.00 0.00 0.00 49 1015.6
20260508174041 18 260 9.7 14.5 0.00 0.00 0.00 50 1015.6
20260508173025 18 255 11.3 19.3 0.00 0.00 0.00 50 1015.8
20260508172051 18 259 16.1 19.3 0.00 0.00 0.00 49 1015.9
20260508171017 18 252 11.3 17.7 0.00 0.00 0.00 52 1016.3
20260508170022 17 238 12.9 20.9 0.00 0.00 0.00 52 1016.3
20260508165026 18 238 14.5 24.1 0.00 0.00 0.00 53 1016.4
20260508164032 16 234 14.5 16.1 0.00 0.00 0.00 54 1016.5
20260508163018 17 221 14.5 20.9 0.00 0.00 0.00 53 1016.4
20260508162022 16 261 11.3 20.9 0.00 0.00 0.00 55 1016.7
20260508161047 16 261 11.3 14.5 0.00 0.00 0.00 54 1016.9
20260508160046 15 251 12.9 17.7 0.00 0.00 0.00 55 1017.0
20260508155019 15 226 11.3 24.1 0.00 0.00 0.00 56 1016.9
20260508154024 17 249 14.5 20.9 0.00 0.00 0.00 52 1016.9
20260508153024 16 248 11.3 16.1 0.00 0.00 0.00 54 1016.8
20260508152015 17 259 17.7 24.1 0.00 0.00 0.00 52 1016.8
20260508151020 17 268 16.1 24.1 0.00 0.00 0.00 52 1016.8
20260508150019 16 240 14.5 20.9 0.00 0.00 0.00 54 1017.0
20260508145018 16 216 12.9 20.9 0.00 0.00 0.00 55 1017.1
20260508144016 16 257 12.9 20.9 0.00 0.00 0.00 55 1017.2
20260508143021 15 244 14.5 22.5 0.00 0.00 0.00 58 1017.2
20260508142046 15 229 11.3 16.1 0.00 0.00 0.00 63 1017.2
20260508141052 14 219 8.0 16.1 0.00 0.00 0.00 65 1017.3
20260508140017 13 225 12.9 19.3 0.00 0.00 0.00 64 1017.3
20260508135042 13 209 8.0 12.9 0.00 0.00 0.00 66 1017.3
20260508134026 12 210 11.3 19.3 0.00 0.00 0.00 67 1017.4
20260508133032 12 219 11.3 24.1 0.00 0.00 0.00 67 1017.6
20260508132058 12 266 11.3 16.1 0.00 0.00 0.00 67 1017.6
20260508131022 12 251 14.5 22.5 0.00 0.00 0.00 66 1017.8
20260508130027 12 225 11.3 17.7 0.00 0.00 0.00 66 1017.8
20260508125032 11 240 9.7 16.1 0.00 0.00 0.00 68 1017.8
20260508124022 11 203 9.7 12.9 0.00 0.00 0.00 67 1017.8
20260508123046 11 213 8.0 12.9 0.00 0.00 0.00 68 1017.8
20260508122050 10 241 6.4 11.3 0.00 0.00 0.00 68 1017.8
20260508121016 10 216 9.7 16.1 0.00 0.00 0.00 69 1017.6
20260508120040 9 244 6.4 9.7 0.00 0.00 0.00 72 1017.3
20260508115024 8 238 6.4 9.7 0.00 0.00 0.00 75 1017.3
20260508114029 6 233 3.2 6.4 0.00 0.00 0.00 83 1017.3
20260508113036 6 180 0.0 3.2 0.00 0.00 0.00 82 1017.2
20260508112021 5 177 1.6 3.2 0.00 0.00 0.00 85 1017.2
20260508111025 3 180 1.6 3.2 0.00 0.00 0.00 90 1017.3
20260508110152 2 206 0.0 3.2 0.00 0.00 0.00 96 1017.0
20260508105018 2 0.0 0.0 0.00 0.00 0.00 96 1017.0
20260508104042 2 180 0.0 1.6 0.00 0.00 0.00 94 1016.9
20260508103208 2 162 1.6 3.2 0.00 0.00 0.00 94 1016.8
20260508102031 2 0.0 0.0 0.00 0.00 0.00 94 1016.9
20260508101018 2 180 3.2 3.2 0.00 0.00 0.00 94 1016.7
20260508100044 2 0.0 0.0 0.00 0.00 0.00 94 1016.5
20260508095048 2 161 1.6 3.2 0.00 0.00 0.00 93 1016.4
20260508094053 2 166 3.2 4.8 0.00 0.00 0.00 94 1016.3